TimeEST,TemperatureF,Dew PointF,Humidity,Sea Level PressureIn,VisibilityMPH,Wind Direction,Wind SpeedMPH,Gust SpeedMPH,PrecipitationIn,Events,Conditions,WindDirDegrees,DateUTC
12:20 AM,41.0,39.2,93,29.67,1.8,WSW,3.5,-,N/A,,Overcast,250,2012-12-10 05:20:00
12:35 AM,41.0,39.2,93,29.67,0.5,WSW,3.5,-,0.00,Fog-Rain,Light Rain,250,2012-12-10 05:35:00
12:53 AM,42.1,41.0,96,29.68,0.5,Calm,Calm,-,0.00,Fog,Fog,0,2012-12-10 05:53:00
1:12 AM,42.8,41.0,93,29.67,1.2,WSW,3.5,-,N/A,,Overcast,240,2012-12-10 06:12:00
1:21 AM,42.8,41.0,93,29.66,2.5,Variable,3.5,-,N/A,,Overcast,0,2012-12-10 06:21:00
1:30 AM,42.8,42.8,100,29.67,3.0,WSW,3.5,-,N/A,,Overcast,250,2012-12-10 06:30:00
1:53 AM,43.0,42.1,97,29.68,4.0,WSW,3.5,-,N/A,,Overcast,250,2012-12-10 06:53:00
2:10 AM,42.8,42.8,100,29.66,2.5,WSW,3.5,-,N/A,,Overcast,240,2012-12-10 07:10:00
2:50 AM,44.6,42.8,93,29.66,5.0,West,9.2,-,N/A,,Overcast,260,2012-12-10 07:50:00
2:53 AM,44.1,42.1,93,29.68,6.0,Variable,5.8,-,N/A,,Overcast,0,2012-12-10 07:53:00
3:00 AM,44.6,42.8,93,29.66,8.0,West,8.1,-,N/A,,Overcast,260,2012-12-10 08:00:00
3:53 AM,43.0,41.0,93,29.68,6.0,West,9.2,-,N/A,,Overcast,260,2012-12-10 08:53:00
4:09 AM,42.8,39.2,87,29.66,5.0,WSW,10.4,-,N/A,,Overcast,250,2012-12-10 09:09:00
4:34 AM,42.8,39.2,87,29.67,9.0,West,9.2,16.1,N/A,,Overcast,260,2012-12-10 09:34:00
4:53 AM,41.0,37.9,89,29.68,10.0,West,8.1,-,N/A,,Overcast,260,2012-12-10 09:53:00
5:53 AM,39.0,36.0,89,29.69,8.0,Variable,6.9,16.1,N/A,,Overcast,0,2012-12-10 10:53:00
6:24 AM,39.2,35.6,87,29.67,10.0,West,9.2,-,N/A,,Overcast,260,2012-12-10 11:24:00
7:53 AM,39.0,33.1,79,29.70,10.0,Variable,4.6,-,N/A,,Overcast,0,2012-12-10 12:53:00
8:53 AM,39.0,32.0,76,29.72,10.0,West,5.8,-,N/A,,Overcast,260,2012-12-10 13:53:00
9:28 AM,37.4,33.8,87,29.71,10.0,Variable,3.5,-,N/A,,Scattered Clouds,0,2012-12-10 14:28:00
9:42 AM,39.2,33.8,81,29.71,10.0,Variable,4.6,-,N/A,,Mostly Cloudy,0,2012-12-10 14:42:00
9:53 AM,39.0,32.0,76,29.72,10.0,Variable,6.9,-,N/A,,Overcast,0,2012-12-10 14:53:00
10:50 AM,37.4,30.2,75,29.73,10.0,WSW,9.2,16.1,N/A,,Overcast,250,2012-12-10 15:50:00
10:53 AM,37.9,30.9,76,29.74,10.0,West,9.2,16.1,N/A,,Overcast,260,2012-12-10 15:53:00
11:53 AM,37.9,30.9,76,29.72,10.0,Variable,5.8,-,N/A,,Mostly Cloudy,0,2012-12-10 16:53:00
12:06 PM,37.4,30.2,75,29.70,10.0,West,4.6,-,N/A,,Scattered Clouds,270,2012-12-10 17:06:00
12:27 PM,37.4,30.2,75,29.71,10.0,Variable,6.9,-,N/A,,Mostly Cloudy,0,2012-12-10 17:27:00
12:50 PM,37.4,30.2,75,29.70,10.0,WNW,8.1,-,N/A,,Partly Cloudy,290,2012-12-10 17:50:00
12:53 PM,37.9,30.0,73,29.71,10.0,WNW,9.2,-,N/A,,Partly Cloudy,290,2012-12-10 17:53:00
1:31 PM,37.4,30.2,75,29.70,10.0,Variable,6.9,-,N/A,,Mostly Cloudy,0,2012-12-10 18:31:00
1:53 PM,37.9,30.9,76,29.72,10.0,Variable,4.6,-,N/A,,Overcast,0,2012-12-10 18:53:00
2:53 PM,37.0,30.9,79,29.73,10.0,West,5.8,-,N/A,,Overcast,280,2012-12-10 19:53:00
3:53 PM,36.0,30.0,79,29.74,7.0,West,5.8,-,N/A,,Overcast,260,2012-12-10 20:53:00
4:23 PM,35.6,30.2,81,29.73,7.0,Variable,5.8,-,N/A,,Overcast,0,2012-12-10 21:23:00
4:53 PM,36.0,30.0,79,29.76,7.0,WSW,5.8,-,N/A,,Overcast,250,2012-12-10 21:53:00
5:53 PM,35.1,30.9,85,29.79,7.0,Variable,4.6,-,N/A,,Overcast,0,2012-12-10 22:53:00
6:53 PM,35.1,30.9,85,29.81,7.0,Variable,5.8,-,N/A,,Overcast,0,2012-12-10 23:53:00
7:53 PM,35.1,30.9,85,29.83,6.0,Calm,Calm,-,N/A,,Overcast,0,2012-12-11 00:53:00
8:00 PM,35.6,30.2,81,29.82,6.0,Calm,Calm,-,N/A,,Overcast,0,2012-12-11 01:00:00
8:37 PM,35.6,30.2,81,29.83,6.0,Calm,Calm,-,N/A,,Overcast,0,2012-12-11 01:37:00
8:53 PM,35.1,30.9,85,29.85,6.0,WSW,4.6,-,N/A,,Overcast,250,2012-12-11 01:53:00
9:53 PM,34.0,30.9,89,29.87,6.0,Calm,Calm,-,N/A,,Overcast,0,2012-12-11 02:53:00
10:03 PM,33.8,32.0,93,29.85,6.0,Calm,Calm,-,N/A,,Overcast,0,2012-12-11 03:03:00
10:12 PM,33.8,32.0,93,29.85,6.0,Calm,Calm,-,N/A,,Overcast,0,2012-12-11 03:12:00
10:53 PM,35.1,30.9,85,29.89,7.0,Calm,Calm,-,N/A,,Overcast,0,2012-12-11 03:53:00
11:53 PM,34.0,30.0,85,29.91,10.0,Variable,3.5,-,N/A,,Overcast,0,2012-12-11 04:53:00